Showing default

EAGLEEYE, 60508

Orbit data source: Space-Track

EAGLEEYE, 60508 is a Polish payload satellite in SSO that was launched on Fri, 16 Aug 2024 UTC via an FALCON 9 launch vehicle from the Air Force Western Test Range (AFWTR). Payload-class satellites include a variety of spacecraft equipped with specific instruments for various scientific and technological missions. These include communications satellites like Starlink; space stations such as the ISS; scientific satellites like the Hubble; Earth observation satellites from companies like Planet Labs, Umbra, and HawkEye 360; GPS; miniature CubeSats for education and research; and military/defense satellites.

Loading next visibility...
Identifier
60508, 2024-149AS
Orbit
SSO
Country
Flag of PLPL / POL
Related business
Manufacturer
CREO
Mission
Operational Commercial Imaging
Bus & Motor
HYPERSAT, Unknown motor
Mass
55 kg wet, 55 kg dry
Launch date (UTC)
2024-08-16 (2 years ago)
Launch vehicle
FALCON 9
Launch site
Air Force Western Test Range (AFWTR)
Object type
Payload
Rocket body
Debris
Shape & HBR
Box + 2 Pan, 0.8 m
Radar Cross Section
0.714 m², Medium (>0.1 m² and < 1m²)

Expand to show TLE details & history
Last TLE update: 18 hours ago

TLE from 18 hours ago
0 EAGLEEYE
1 60508U 24149AS  26171.22734169  .00083346  00000-0  65090-3 0  9997
2 60508  97.3718 264.7338 0004548 228.7265 131.3607 15.71393531103410
Epoch: 2026-06-20T05:27Z
TLE epoch observation values (Epoch: 2026-06-20T05:27:22.322Z)
Latitude
0.00003°
Longitude
-85.5542°
Altitude
360.099 km
Speed
7.692 km/s
True Right ascension
17h 38m 56s
True Declination
0° 00' 00"
Sunlit
Object was in full shadow at epoch
Visualization orbit readout
Latitude
Unknown
Longitude
Unknown
Altitude
Unknown
Speed
Unknown
Apparent Right ascension
Unknown
Apparent Declination
Unknown
Sunlit
N/A
Visualization observer readout
Local Sidereal Time
10:18:32
Azimuth
Unknown
Elevation
Unknown
Doppler factor
Unknown
Orbital elements
Apogee altitude
354.87 km
Perigee altitude
348.749 km
Semi-major axis
6,729.947 km
Eccentricity
0.00045
Inclination
97.3718°
RAAN
264.7338°
Arg. of periapsis
228.7265°
True anomaly
131.3998°
Mean anomaly
131.3607°
Eccentric anomaly
131.38025°
Mean motion
3.93121 °/min
Orbital period
91.57 mins
BSTAR
0.0006509
Loading maneuver chart data...
Computing Atmospheric mass density...
Loading historical data...
Loading historical data...
Loading historical data...
Loading historical data...
Loading historical data...
Loading historical data...
Loading historical data...

Documentation

Showing up to 5 results
|